Wind_Speed
3 4 4 4 3 4 5 5 6 6 5 5 5 5 6 6 4 4 5 5 6 7 10 11 11 10 10 10 12 13 15 16 16 15 14 12 10 8 6 5 4 3 2 1 1 1 3 7 10
4 4 3 3 3 2 3 4 5 6 6 5 5 5 5 5 4 4 5 5 4 4 6 9 10 10 10 10 10 12 13 14 14 14 14 13 11 9 6 5 4 3 2 1 1 1 2 5 9
4 4 5 5 3 2 2 3 5 6 6 4 4 4 5 5 4 3 4 5 5 3 3 6 8 9 8 8 9 9 11 12 13 14 14 14 12 10 8 5 4 3 2 1 1 1 1 3 8
4 4 4 5 4 3 3 3 4 5 6 5 4 4 4 5 5 4 3 4 5 5 3 3 5 7 7 7 7 7 8 9 11 12 13 13 13 13 10 7 5 4 3 1 1 2 2 1 5
3 3 4 4 4 4 3 2 3 4 5 6 6 5 4 4 4 4 3 3 5 6 5 3 3 5 6 5 4 5 6 7 8 9 10 11 12 13 12 10 8 6 5 4 2 2 2 1 3
3 3 4 4 5 4 2 2 3 3 5 6 6 6 5 4 4 4 3 2 3 6 6 5 3 3 4 4 3 3 3 4 5 6 7 8 10 11 12 11 10 9 8 7 5 3 2 1 1
4 4 5 5 5 4 2 1 2 3 4 6 6 7 6 5 4 4 4 3 2 4 6 7 5 4 3 3 4 3 2 2 2 2 4 5 7 8 10 11 11 10 10 9 7 5 3 2 0
5 5 5 5 3 3 2 1 1 2 3 4 5 6 6 6 5 4 4 4 2 2 4 7 8 7 5 4 4 4 3 1 0 1 2 3 4 5 7 9 10 10 10 10 9 7 4 2 1
7 7 7 7 5 5 4 3 3 4 4 5 5 5 6 6 5 5 4 4 2 1 3 6 8 9 8 8 7 6 5 3 2 2 2 3 3 4 5 6 8 9 10 10 9 9 6 3 1
11 10 10 10 9 8 7 6 6 6 7 7 7 7 6 6 5 4 4 4 3 2 3 5 8 10 11 11 10 9 8 7 5 4 4 4 4 4 4 4 5 6 7 8 8 9 7 4 1
15 14 13 13 12 12 11 10 10 10 10 11 10 10 9 8 7 6 5 4 4 4 5 6 8 10 12 13 13 12 11 10 9 8 7 7 6 5 4 4 4 5 5 5 6 7 7 5 2
18 17 16 16 16 16 15 15 14 14 14 14 14 13 12 11 11 9 8 7 6 6 7 8 9 11 12 14 14 14 13 12 11 11 11 10 9 8 7 6 5 5 5 4 3 4 5 4 3
19 19 18 19 19 19 19 19 18 18 17 17 17 16 16 15 15 13 12 10 10 9 10 10 11 11 12 13 14 15 15 14 14 14 13 13 12 10 10 9 8 7 7 6 5 4 4 4 4
21 21 22 22 22 22 23 23 23 23 21 20 19 19 19 20 19 18 16 14 13 12 12 12 12 13 14 14 14 15 16 17 17 17 17 16 15 13 12 12 11 10 10 10 9 7 6 6 5
24 24 25 26 26 26 26 28 28 26 25 24 23 23 23 23 23 23 22 21 19 17 15 15 14 15 16 16 16 16 17 18 19 19 20 19 18 16 15 14 13 13 13 14 13 12 10 9 9
26 27 29 30 30 30 30 33 32 31 30 29 28 27 27 27 27 27 27 26 25 23 21 19 19 18 17 17 18 18 18 18 19 20 21 21 20 19 17 16 16 16 17 17 17 15 14 13 13
30 31 32 34 34 34 35 38 37 35 34 34 33 32 31 30 30 30 30 30 30 28 26 24 23 22 21 20 20 21 21 21 21 22 23 23 22 21 20 20 19 19 20 20 19 19 18 17 17
33 35 36 38 39 38 39 42 41 40 39 38 37 36 35 34 33 33 33 33 32 31 30 29 28 26 26 25 24 24 23 24 24 25 25 26 25 24 23 23 23 22 22 22 21 21 20 20 20
37 38 39 41 41 41 42 44 44 43 43 42 40 39 38 37 36 35 35 35 35 35 33 32 32 31 30 30 29 27 26 25 27 28 29 29 28 27 26 26 25 25 24 24 23 23 23 23 23
37 39 41 42 43 42 43 44 43 43 42 41 40 38 37 36 36 35 36 37 37 37 37 36 35 34 34 34 34 32 30 29 30 31 33 33 32 31 29 27 26 26 25 24 24 24 25 25 25
39 40 41 42 42 42 42 42 41 40 39 37 36 35 34 33 33 34 35 37 39 39 40 39 39 37 37 38 39 36 34 32 32 34 34 35 35 34 32 29 27 26 25 25 25 25 26 26 25
42 42 42 42 41 41 40 39 39 35 34 33 32 31 30 30 30 31 33 36 39 41 42 42 41 40 40 40 41 40 39 38 35 35 35 35 36 36 34 31 28 26 25 25 26 26 26 26 26
45 45 45 44 43 43 41 40 40 36 34 34 33 32 32 31 31 31 32 35 38 41 44 44 43 43 43 43 44 44 46 45 41 39 37 36 36 35 34 31 29 27 25 25 26 26 26 25 25
42 43 44 45 44 44 41 40 41 40 36 36 36 35 35 35 35 34 34 35 37 41 44 46 46 45 45 45 45 47 49 48 46 43 41 40 39 37 35 32 29 26 25 25 25 26 25 25 25
33 35 37 37 36 36 37 37 40 38 36 35 35 35 36 36 36 35 35 36 38 40 43 46 46 46 46 46 47 49 50 51 49 47 45 43 41 39 36 31 27 23 23 24 24 25 25 25 25
24 23 24 24 24 25 26 28 31 30 31 31 31 32 32 32 32 32 33 34 36 38 40 43 44 44 45 46 47 48 49 48 46 44 42 39 38 36 32 26 21 19 22 24 25 25 25 25 25
20 17 14 12 12 14 18 20 21 21 23 25 25 26 26 26 27 28 29 30 31 32 34 36 39 41 42 42 45 45 44 43 41 40 37 36 32 28 21 17 16 20 23 25 26 26 26 25 25
20 17 13 8 4 2 6 10 12 14 15 18 19 19 18 17 19 20 21 22 22 23 25 29 31 34 35 35 37 39 39 35 31 28 27 25 20 15 13 15 18 22 24 25 25 25 25 24 24
21 19 17 15 10 5 3 1 3 6 8 10 10 10 9 10 10 11 12 14 15 17 18 21 23 25 26 26 25 24 23 20 17 16 14 12 10 11 14 17 19 21 22 22 22 22 22 22 22
24 22 19 17 13 10 8 6 3 1 3 6 7 7 6 5 4 3 3 3 5 7 8 10 11 11 11 11 11 10 10 8 7 6 6 6 8 11 13 15 17 18 19 19 19 19 20 20 20
Wind_Direction
93 64 55 59 61 65 61 50 45 44 52 62 61 61 66 75 107 136 145 134 107 83 75 81 97 106 100 88 76 66 62 61 64 66 66 67 67 66 65 62 61 63 61 42 352 276 235 219 213
110 83 62 57 47 47 47 37 38 35 42 54 65 67 67 68 82 118 153 163 145 107 79 79 88 100 103 95 82 71 65 63 66 69 68 67 66 65 63 61 58 57 57 29 352 320 257 226 214
111 91 76 68 54 64 61 38 25 27 35 46 67 74 67 65 71 101 155 181 179 163 103 82 86 94 101 99 90 79 71 68 68 71 71 68 67 64 60 58 56 55 51 12 341 357 313 227 209
110 90 80 72 72 86 85 44 25 29 36 47 66 79 73 66 64 77 133 182 194 194 173 106 94 94 99 102 99 91 81 74 72 73 76 73 70 67 61 56 53 50 45 23 354 9 24 157 191
127 97 85 88 94 98 85 42 22 25 33 40 53 66 75 69 56 63 88 159 195 202 201 174 122 104 102 109 111 104 94 83 76 75 76 76 73 70 64 58 55 51 47 39 23 10 22 78 177
151 115 100 109 123 124 116 61 34 27 36 44 50 55 63 63 53 58 69 105 172 202 207 201 178 136 116 120 125 121 115 97 84 79 74 71 70 68 64 58 54 51 48 43 36 28 17 35 159
180 149 121 122 133 144 136 93 37 31 36 43 46 43 47 45 46 52 59 74 124 189 208 208 202 193 173 152 148 155 154 137 93 70 67 62 58 58 59 55 52 47 44 42 36 33 28 23 87
210 195 172 158 161 180 186 220 327 350 4 17 26 28 32 34 35 35 40 50 89 166 205 214 216 217 216 209 189 182 185 194 289 346 22 35 32 37 44 49 49 46 42 38 35 32 32 28 349
231 228 220 215 218 226 232 245 274 301 320 330 336 346 354 8 16 19 19 20 29 201 219 224 228 232 235 236 230 217 211 223 260 300 317 337 359 10 20 33 40 42 41 39 36 34 32 22 343
235 240 240 239 239 237 236 246 261 279 293 299 303 309 318 325 337 350 358 357 349 318 272 249 241 242 244 245 243 238 232 235 248 265 288 305 317 335 348 3 21 28 35 37 40 39 34 26 349
236 240 244 245 247 247 245 249 255 263 271 277 282 288 294 300 305 310 315 317 315 304 284 266 251 246 247 248 247 244 241 242 249 257 268 278 286 291 297 312 341 359 10 23 34 40 36 27 359
237 240 242 245 248 251 253 253 254 257 262 266 269 273 278 284 289 289 289 287 285 282 277 270 258 250 247 246 247 246 245 246 250 257 262 268 273 274 272 277 294 314 330 338 354 14 22 17 352
238 242 245 248 250 253 255 254 254 254 255 258 262 266 271 277 280 281 281 280 278 275 273 272 265 257 249 245 247 248 249 249 251 257 260 262 263 264 264 265 274 288 298 303 311 323 336 338 330
241 243 245 247 249 251 254 255 254 253 255 259 264 269 273 277 279 280 279 277 276 273 270 269 269 264 256 249 247 250 251 251 252 255 257 257 255 254 255 259 267 278 288 290 288 294 307 304 297
245 245 247 248 250 251 253 254 253 256 258 262 266 271 275 278 280 280 280 278 277 275 269 266 266 267 263 257 252 251 253 255 255 254 255 254 251 247 247 251 261 271 278 281 280 283 291 298 295
250 250 251 251 252 253 254 256 256 258 261 264 266 269 272 275 277 278 279 279 280 279 275 270 265 262 262 262 260 256 255 256 256 255 254 252 249 245 244 248 257 266 269 272 273 278 284 289 292
257 257 257 257 256 257 257 259 260 260 262 264 265 266 267 269 271 273 275 277 278 279 278 274 270 265 262 262 264 263 259 259 259 258 255 251 248 246 246 250 256 263 265 267 268 272 277 283 287
262 261 261 261 261 260 261 261 262 263 263 263 264 264 264 264 265 266 268 271 273 274 275 274 272 270 267 266 266 267 265 262 262 261 258 253 249 248 250 254 257 260 264 265 266 269 273 279 283
266 266 265 265 264 263 263 263 264 264 264 264 263 263 263 262 261 261 261 263 265 267 269 269 270 271 271 270 269 270 271 268 266 264 259 255 251 250 252 257 260 262 263 264 265 268 272 278 282
271 270 269 269 268 266 265 265 265 265 265 265 265 264 263 263 262 261 260 259 259 260 263 264 266 269 271 271 272 273 273 273 273 269 263 257 252 250 252 256 259 261 262 262 264 268 274 278 281
276 274 272 272 272 271 270 269 268 267 266 265 264 263 262 261 262 262 262 260 257 256 257 259 261 264 268 271 272 274 275 275 275 275 269 261 255 251 251 253 255 258 259 262 266 271 277 280 282
280 277 276 274 273 272 271 271 269 267 267 265 264 263 262 263 264 265 265 263 258 254 254 254 256 261 265 268 269 271 271 271 273 273 270 265 259 254 252 252 253 255 259 264 269 274 277 280 281
280 278 275 274 272 271 270 270 270 267 267 267 267 266 266 267 269 271 271 268 262 255 251 251 252 256 260 263 266 266 266 265 267 269 269 267 263 258 252 252 254 256 261 266 271 274 276 278 279
283 278 275 271 269 268 267 268 268 268 268 268 269 269 270 272 274 277 277 273 265 257 251 249 249 252 256 258 262 263 263 265 267 267 267 264 261 258 254 250 253 254 260 266 270 274 275 276 276
297 289 283 277 271 266 263 262 262 264 265 265 267 269 272 274 276 277 277 273 266 258 252 248 248 250 253 257 260 262 264 266 267 269 268 263 258 254 249 246 247 252 259 265 269 271 271 271 271
321 309 292 279 267 259 256 254 257 258 257 256 258 262 266 269 271 273 273 270 264 258 254 250 249 251 254 258 262 264 267 271 272 269 265 257 250 246 241 238 242 253 262 266 267 269 269 269 268
343 336 325 304 280 258 249 250 252 252 251 248 248 251 255 259 263 266 268 268 265 261 257 255 252 254 258 262 267 269 273 275 273 265 255 246 238 235 233 239 252 261 265 267 268 269 268 267 266
9 12 15 11 355 270 251 249 251 250 249 244 241 241 245 251 257 262 265 268 268 266 262 259 258 259 263 268 272 271 273 268 257 246 236 230 227 229 238 251 259 263 265 267 267 268 266 266 265
23 28 35 40 45 45 38 331 270 253 237 223 217 217 225 232 247 256 266 269 267 265 263 259 258 261 265 268 270 266 259 243 224 216 217 221 229 240 250 257 260 263 265 267 269 269 268 266 264
27 33 39 43 45 49 53 36 29 83 182 178 179 171 169 181 203 242 256 243 239 251 246 239 241 243 245 245 241 224 215 208 210 217 223 232 245 251 256 260 263 266 269 271 272 271 270 267 264
Height
5916 5916 5916 5917 5918 5918 5918 5919 5919 5919 5919 5918 5917 5916 5915 5915 5915 5917 5915 5913 5913 5913 5913 5912 5912 5912 5912 5912 5912 5911 5910 5908 5907 5906 5904 5903 5902 5901 5899 5898 5897 5897 5896 5896 5896 5895 5895 5896 5897
5916 5916 5917 5918 5917 5917 5918 5918 5919 5919 5919 5918 5917 5915 5914 5914 5913 5913 5912 5913 5913 5913 5913 5913 5912 5912 5913 5913 5913 5912 5911 5910 5909 5908 5906 5905 5903 5901 5900 5899 5898 5897 5896 5896 5895 5895 5895 5895 5895
5916 5916 5918 5917 5917 5917 5918 5918 5918 5918 5918 5918 5917 5916 5915 5914 5913 5912 5912 5912 5913 5913 5913 5913 5913 5913 5913 5913 5913 5913 5913 5912 5911 5909 5908 5906 5904 5903 5901 5900 5899 5898 5897 5896 5896 5895 5895 5895 5895
5916 5917 5918 5918 5917 5917 5917 5918 5918 5918 5918 5918 5917 5916 5915 5914 5913 5912 5911 5911 5912 5912 5913 5913 5913 5913 5913 5913 5914 5914 5913 5913 5912 5911 5909 5907 5906 5904 5902 5901 5900 5899 5898 5897 5896 5896 5895 5895 5895
5916 5917 5918 5918 5918 5918 5917 5917 5917 5918 5918 5917 5917 5916 5915 5914 5912 5911 5911 5911 5911 5911 5912 5913 5913 5914 5914 5914 5914 5914 5914 5913 5913 5912 5911 5909 5907 5905 5904 5903 5901 5900 5898 5897 5896 5896 5896 5896 5895
5917 5917 5918 5918 5918 5918 5918 5917 5917 5917 5918 5917 5916 5916 5915 5914 5912 5911 5910 5910 5910 5911 5911 5912 5913 5913 5913 5914 5914 5914 5914 5914 5913 5913 5912 5910 5909 5907 5905 5904 5902 5900 5899 5898 5897 5896 5896 5896 5896
5917 5918 5918 5918 5918 5918 5918 5918 5917 5917 5917 5917 5916 5915 5915 5914 5912 5911 5910 5909 5909 5910 5911 5911 5912 5912 5913 5913 5913 5913 5913 5913 5913 5913 5912 5911 5910 5908 5907 5905 5903 5902 5900 5898 5897 5897 5896 5896 5896
5915 5918 5917 5918 5918 5918 5918 5917 5917 5916 5916 5916 5916 5915 5914 5913 5912 5911 5910 5909 5909 5909 5910 5910 5910 5911 5911 5912 5912 5912 5912 5912 5912 5912 5911 5911 5910 5909 5907 5906 5904 5903 5901 5899 5898 5897 5897 5896 5897
5914 5917 5916 5917 5917 5917 5917 5917 5916 5915 5915 5915 5914 5914 5913 5912 5911 5910 5909 5909 5908 5908 5908 5909 5909 5909 5910 5910 5910 5911 5911 5911 5911 5911 5910 5909 5909 5908 5907 5906 5905 5903 5902 5900 5899 5898 5897 5897 5896
5912 5913 5914 5915 5915 5915 5915 5915 5915 5914 5914 5913 5913 5913 5912 5911 5910 5909 5909 5908 5907 5907 5907 5907 5907 5908 5908 5908 5908 5909 5909 5909 5909 5909 5909 5908 5908 5907 5906 5906 5905 5904 5902 5901 5899 5898 5897 5896 5896
5908 5909 5910 5911 5912 5912 5913 5913 5912 5912 5912 5911 5911 5910 5910 5910 5909 5908 5907 5907 5906 5906 5905 5905 5905 5905 5905 5906 5906 5906 5907 5907 5908 5907 5907 5907 5906 5905 5905 5904 5904 5903 5902 5901 5899 5898 5897 5896 5895
5905 5906 5906 5907 5908 5908 5909 5909 5909 5909 5909 5908 5907 5907 5907 5907 5906 5906 5905 5905 5904 5904 5903 5903 5903 5902 5902 5903 5903 5903 5904 5904 5905 5905 5904 5904 5904 5903 5903 5902 5902 5901 5900 5900 5899 5898 5897 5895 5895
5902 5902 5902 5903 5903 5904 5904 5904 5904 5904 5904 5904 5903 5903 5903 5903 5903 5902 5902 5902 5901 5901 5901 5900 5900 5900 5900 5900 5900 5900 5900 5901 5901 5902 5901 5901 5901 5900 5900 5899 5899 5899 5898 5897 5897 5896 5895 5894 5893
5898 5898 5898 5898 5898 5898 5899 5899 5898 5898 5899 5899 5899 5899 5899 5899 5899 5898 5898 5898 5898 5898 5897 5897 5897 5897 5897 5896 5897 5896 5896 5896 5897 5897 5898 5897 5897 5897 5896 5896 5896 5895 5895 5895 5894 5893 5893 5892 5891
5893 5893 5893 5892 5892 5893 5893 5892 5892 5893 5894 5894 5895 5895 5895 5894 5894 5894 5894 5894 5894 5894 5894 5894 5893 5893 5893 5893 5893 5892 5892 5892 5892 5893 5893 5893 5893 5893 5892 5892 5892 5892 5891 5891 5891 5890 5889 5889 5888
5888 5888 5887 5887 5886 5887 5889 5885 5886 5886 5888 5888 5889 5889 5889 5889 5889 5889 5889 5889 5890 5890 5890 5890 5889 5889 5889 5889 5888 5888 5887 5887 5887 5887 5887 5888 5888 5888 5888 5888 5888 5888 5887 5887 5887 5886 5886 5885 5885
5882 5882 5881 5880 5880 5880 5880 5877 5878 5879 5880 5881 5882 5883 5883 5883 5883 5883 5883 5883 5884 5884 5885 5885 5884 5884 5884 5883 5883 5883 5883 5882 5882 5882 5882 5882 5883 5883 5883 5884 5884 5883 5883 5883 5882 5882 5882 5882 5881
5875 5874 5873 5872 5871 5872 5871 5869 5870 5871 5872 5873 5873 5874 5875 5876 5876 5877 5877 5876 5877 5877 5878 5878 5878 5878 5877 5877 5877 5877 5878 5877 5877 5877 5876 5877 5877 5877 5878 5878 5878 5878 5878 5878 5878 5878 5878 5877 5877
5867 5865 5864 5862 5862 5862 5861 5860 5860 5861 5862 5863 5864 5865 5866 5867 5868 5869 5869 5869 5869 5869 5870 5871 5871 5871 5871 5870 5870 5870 5871 5871 5871 5871 5870 5870 5871 5871 5872 5872 5873 5873 5873 5873 5873 5873 5872 5872 5871
5857 5856 5854 5852 5851 5851 5850 5849 5849 5850 5851 5852 5854 5855 5856 5857 5858 5860 5861 5862 5862 5862 5863 5863 5863 5863 5863 5863 5862 5863 5864 5864 5864 5864 5863 5862 5863 5864 5865 5866 5867 5867 5867 5867 5867 5867 5867 5866 5866
5847 5845 5843 5842 5840 5839 5840 5839 5839 5840 5841 5842 5844 5845 5847 5848 5849 5850 5851 5853 5854 5854 5855 5855 5856 5856 5856 5855 5854 5855 5855 5856 5856 5856 5855 5855 5856 5857 5858 5859 5860 5860 5861 5861 5862 5862 5861 5860 5859
5836 5834 5832 5830 5830 5829 5830 5829 5829 5830 5831 5832 5834 5835 5837 5839 5841 5842 5842 5844 5845 5845 5846 5847 5848 5848 5848 5847 5846 5846 5846 5846 5847 5848 5849 5849 5848 5849 5850 5851 5853 5854 5855 5855 5856 5856 5855 5854 5853
5824 5822 5820 5818 5817 5817 5818 5818 5820 5822 5822 5823 5824 5826 5828 5830 5832 5833 5834 5835 5835 5836 5837 5838 5839 5840 5840 5840 5840 5838 5834 5835 5837 5839 5841 5842 5842 5842 5843 5844 5846 5847 5848 5849 5849 5849 5849 5848 5846
5810 5808 5805 5804 5803 5805 5807 5808 5808 5811 5813 5814 5815 5816 5819 5821 5823 5824 5825 5826 5826 5827 5828 5829 5830 5832 5833 5833 5832 5830 5826 5824 5826 5829 5831 5833 5834 5836 5837 5838 5839 5840 5841 5842 5842 5842 5842 5841 5840
5798 5795 5792 5790 5790 5792 5793 5795 5795 5800 5801 5803 5805 5807 5809 5812 5814 5815 5816 5816 5816 5817 5818 5820 5821 5823 5824 5825 5825 5823 5820 5818 5818 5820 5822 5823 5825 5827 5828 5830 5832 5833 5835 5835 5836 5835 5835 5834 5833
5791 5785 5782 5780 5780 5780 5782 5783 5785 5788 5790 5792 5794 5797 5799 5802 5804 5805 5806 5807 5807 5807 5809 5811 5813 5814 5815 5816 5816 5815 5814 5811 5811 5811 5812 5814 5815 5817 5819 5821 5823 5826 5828 5828 5828 5828 5827 5827 5826
5787 5781 5776 5773 5771 5773 5774 5776 5778 5780 5781 5783 5786 5789 5791 5794 5796 5797 5798 5798 5799 5799 5801 5802 5804 5806 5807 5808 5807 5806 5805 5804 5803 5804 5805 5806 5807 5809 5811 5814 5817 5819 5821 5821 5821 5820 5819 5819 5818
5788 5781 5776 5772 5770 5771 5772 5772 5774 5774 5775 5777 5780 5783 5786 5788 5791 5792 5792 5792 5792 5793 5794 5795 5796 5798 5799 5800 5799 5798 5798 5796 5796 5797 5798 5800 5802 5804 5807 5809 5811 5813 5814 5814 5813 5812 5811 5810 5810
5790 5784 5778 5774 5772 5771 5771 5774 5771 5771 5772 5774 5776 5779 5782 5785 5787 5787 5787 5787 5787 5787 5788 5788 5789 5790 5792 5792 5792 5791 5792 5792 5792 5793 5794 5796 5798 5801 5803 5805 5806 5807 5807 5807 5806 5805 5804 5803 5802
5793 5787 5782 5779 5776 5773 5773 5776 5771 5771 5771 5772 5775 5777 5780 5783 5784 5785 5785 5784 5784 5783 5783 5784 5784 5785 5786 5787 5787 5788 5788 5789 5790 5791 5792 5794 5796 5798 5799 5800 5801 5801 5801 5800 5800 5798 5798 5797 5796